Location: Unspecified
(0.0000°N, 0.0000°E)
Time: 06:36:47
(UTC+00:00)

Hubble Space Telescope - Pass Details

Date: 14 January 2018
Orbit: 537 x 541 km, 28.5° (Epoch: 20 January)

Event Time Altitude Azimuth Distance (km) Brightness Sun altitude
Rises 18:54:12 0° 229° (SW) 2,674 5.9 -10.5°
Reaches altitude 10° 18:56:33 10° 222° (SW) 1,783 4.5 -11.0°
Maximum altitude 19:00:28 43° 150° (SSE) 759 1.4 -11.9°
Enters shadow 19:03:10 18° 85° (E) 1,345 2.2 -12.6°
